Location: Koslow
(50.3020°N, 18.5663°E)
Time: 21:43:29
(UTC+00:00)

BREEZE-M R/B - Pass Details

Date: 07 June 2020
Orbit: 311 x 4533 km, 49.7° (Epoch: 04 July)

Event Time Altitude Azimuth Distance (km) Brightness Sun altitude
Rises 00:30:23 0° 270° (W) 3,966 6.9 -13.3°
Reaches altitude 10° 00:33:57 10° 271° (W) 2,430 5.8 -13.0°
Maximum altitude 00:39:00 83° 186° (S) 508 2.5 -12.7°
Drops below altitude 10° 00:41:52 10° 96° (E) 1,395 5.2 -12.5°
Sets 00:43:27 0° 95° (E) 2,119 6.1 -12.3°
